[[{"header":{"parameterUnit":"m.s-1","parameterCategory":1,"la1":30.2991,"la2":30.254,"lo1":-89.0895,"lo2":-89.0444,"dy":0.0017,"dx":0.0017,"nx":28,"ny":28,"refTime":"2026-02-17T09:00:00:Z","depth":0,"parameterNumber":2,"parameterNumberName":"U-component_of_WINDS"},"data":[0,0,0,0,0,0,0,0,0,0,0,0,0,0,0,0,0,0,0,0,0,0,0,0,0,0,0,0,0,0,0,0,0,0,0,0,0,0,0,0,0,0,0,0,0,0,0,0,0,0,0,0,0,0,0,0,0,0,-0.3446,-0.3446,0,-0.3429,-0.3429,-0.3429,-0.3391,-0.339,-0.3389,-0.3388,-0.3374,-0.3375,-0.3375,0,0,0,0,0,0,0,0,0,0,0,0,0,-0.3446,-0.3446,-0.3446,-0.3445,-0.3445,-0.3429,-0.3429,-0.3429,-0.3391,-0.339,-0.3389,-0.3388,-0.3374,-0.3375,-0.3375,0,0,0,0,0,0,0,0,0,0,0,0,0,-0.3439,-0.3446,-0.3446,-0.3424,-0.3422,-0.3429,-0.3429,-0.3429,-0.3391,-0.339,-0.3389,-0.3387,-0.3374,-0.3375,-0.3375,-0.3403,0,0,-0.3377,-0.3377,0,0,0,0,0,0,0,0,-0.344,-0.3439,-0.3428,-0.3426,-0.3423,-0.3411,-0.3424,-0.342,-0.3391,-0.3403,-0.3388,-0.3387,-0.3388,-0.3387,-0.3387,-0.3403,-0.3402,-0.3377,-0.3378,-0.3378,-0.3378,0,0,0,0,0,0,0,-0.344,-0.344,-0.3439,-0.3427,-0.3425,-0.3416,-0.3414,-0.3423,-0.3402,-0.3402,-0.3399,-0.3397,-0.3386,-0.3386,-0.3386,-0.3402,-0.3377,-0.3378,-0.3378,-0.3378,-0.344,-0.3441,0,0,0,0,0,0,-0.3444,-0.3441,-0.344,-0.3439,-0.3429,-0.3417,-0.3415,-0.3416,-0.3402,-0.3399,-0.3398,-0.3396,-0.3386,-0.3386,-0.3386,-0.3418,-0.3378,-0.3378,-0.3379,-0.3438,-0.344,-0.3441,0,0,0,0,0,0,-0.3444,-0.3444,-0.344,-0.3439,-0.3438,-0.3418,-0.342,-0.3416,-0.3416,-0.34,-0.3396,-0.3402,-0.3385,-0.3385,-0.3399,-0.3417,-0.3379,-0.3379,-0.3437,-0.3439,-0.3441,-0.3482,0,0,0,0,0,0,-0.3444,-0.3444,-0.3454,-0.3439,-0.3438,-0.3454,-0.3421,-0.3417,-0.3417,-0.3413,-0.3402,-0.3399,-0.3384,-0.3398,-0.34,-0.3417,-0.338,-0.3435,-0.3438,-0.344,-0.3479,-0.3485,-0.349,0,0,0,0,0,-0.3444,-0.3467,-0.3455,-0.3455,-0.345,-0.3455,-0.3454,-0.3435,-0.3419,-0.3429,-0.3418,-0.3399,-0.3414,-0.34,-0.3401,-0.3419,-0.3434,-0.3437,-0.344,-0.3476,-0.3484,-0.349,0,0,0,0,0,0,-0.3485,-0.3465,-0.3451,-0.347,-0.3464,-0.3448,-0.3461,-0.3444,-0.3444,-0.344,-0.3418,-0.3416,-0.3433,-0.3427,-0.3412,-0.3445,-0.3421,-0.3424,-0.3448,-0.3455,-0.3461,-0.3463,-0.338,0,0,0,0,0,-0.3496,-0.3501,-0.3483,-0.3501,-0.3499,-0.348,-0.3482,-0.3468,-0.3461,-0.3459,-0.3449,-0.3445,-0.3448,-0.3451,-0.3454,-0.3477,-0.3475,-0.349,-0.3496,-0.35,-0.3504,-0.3516,-0.3523,-0.3451,-0.3451,-0.3451,0,0,-0.352,-0.3509,-0.3514,-0.3509,-0.3503,-0.351,-0.3479,-0.3487,-0.3491,-0.3461,-0.3473,-0.3466,-0.3459,-0.3479,-0.3486,-0.3474,-0.3523,-0.3504,-0.3508,-0.3509,-0.352,-0.3527,-0.3533,-0.3453,-0.3452,-0.3452,0,0,-0.3566,-0.3558,-0.3572,-0.3567,-0.3558,-0.3545,-0.3548,-0.3535,-0.3528,-0.354,-0.3517,-0.3523,-0.3529,-0.3526,-0.3525,-0.3568,-0.3552,-0.357,-0.36,-0.3612,-0.3618,-0.3623,-0.364,-0.3646,-0.3573,-0.3573,-0.3573,0,-0.3597,-0.3604,-0.3582,-0.3591,-0.359,-0.3561,-0.3576,-0.3572,-0.3565,-0.3565,-0.3551,-0.3558,-0.3552,-0.357,-0.3581,-0.358,-0.3584,-0.3572,-0.3619,-0.3624,-0.3628,-0.3643,-0.365,-0.3575,-0.3575,-0.3575,-0.3575,0,-0.3643,-0.3648,-0.3661,-0.3654,-0.3654,-0.3666,-0.3647,-0.365,-0.3635,-0.3624,-0.3637,-0.3628,-0.3628,-0.3631,-0.3618,-0.3647,-0.364,-0.3623,-0.3598,-0.3638,-0.3652,-0.3658,-0.3579,-0.3578,-0.3577,-0.3577,0,0,-0.3716,-0.3695,-0.37,-0.3697,-0.3684,-0.3688,-0.3699,-0.3698,-0.3702,-0.3697,-0.3707,-0.3712,-0.3696,-0.3695,-0.368,-0.3691,-0.3727,-0.3672,-0.3672,-0.3684,-0.3761,-0.3775,-0.3782,-0.3715,-0.3716,-0.3717,-0.3761,0,-0.376,-0.3777,-0.3757,-0.3778,-0.3784,-0.3756,-0.3765,-0.3759,-0.3749,-0.3752,-0.3741,-0.3746,-0.3723,-0.3722,-0.3732,-0.3721,-0.3743,-0.3717,-0.3725,-0.3726,-0.3729,-0.3789,-0.3804,-0.3847,-0.3767,-0.3768,-0.3768,0,-0.3814,-0.3811,-0.3833,-0.3819,-0.382,-0.3829,-0.3827,-0.383,-0.3822,-0.3814,-0.3812,-0.3795,-0.3805,-0.378,-0.3795,-0.3778,-0.378,-0.3775,-0.3776,-0.3777,-0.3751,-0.3793,-0.3859,-0.3867,-0.3777,-0.3776,-0.3775,0,-0.3866,-0.3868,-0.3881,-0.3879,-0.3862,-0.3869,-0.3863,-0.3854,-0.3855,-0.3852,-0.3853,-0.3852,-0.3852,-0.3853,-0.3835,-0.3819,-0.3853,-0.3826,-0.3847,-0.3848,-0.3857,-0.3857,-0.3926,-0.3856,-0.3856,-0.3855,-0.3855,0,-0.3918,-0.3933,-0.3904,-0.3913,-0.3929,-0.3905,-0.3922,-0.3913,-0.3905,-0.3912,-0.3887,-0.3894,-0.387,-0.3875,-0.3861,-0.3876,-0.3876,-0.3871,-0.3867,-0.3874,-0.3875,-0.3876,-0.3873,-0.3857,-0.3857,-0.3856,-0.3856,0,-0.398,-0.3961,-0.3974,-0.3957,-0.3953,-0.3966,-0.3951,-0.3959,-0.3946,-0.3955,-0.3956,-0.3937,-0.3941,-0.3923,-0.3925,-0.3916,-0.3938,-0.3929,-0.394,-0.3938,-0.396,-0.3959,-0.4034,-0.4043,-0.3966,-0.3967,-0.3967,0,-0.4015,-0.4026,-0.401,-0.4012,-0.4006,-0.401,-0.4011,-0.3988,-0.399,-0.3981,-0.399,-0.3992,-0.3992,-0.4,-0.3987,-0.3988,-0.398,-0.4006,-0.398,-0.3986,-0.3982,-0.3982,-0.3983,-0.4012,-0.4013,-0.4014,-0.4014,0,-0.408,-0.407,-0.4071,-0.4069,-0.4069,-0.4067,-0.4062,-0.4066,-0.4041,-0.4044,-0.4048,-0.4048,-0.4049,-0.4051,-0.4049,-0.4043,-0.4026,-0.4022,-0.4027,-0.4035,-0.4042,-0.404,-0.3957,-0.4021,-0.402,-0.402,-0.4019,-0.4019,-0.4131,-0.4139,-0.4129,-0.413,-0.4124,-0.4121,-0.4127,-0.4115,-0.4117,-0.4115,-0.4102,-0.4108,-0.41,-0.4095,-0.4091,-0.4096,-0.4084,-0.4092,-0.4094,-0.4096,-0.4101,-0.4039,-0.4096,-0.4096,-0.4095,-0.4095,-0.4095,0,-0.4195,-0.4187,-0.4189,-0.4183,-0.4185,-0.4165,-0.416,-0.4163,-0.4168,-0.4162,-0.4162,-0.4166,-0.4169,-0.4155,-0.4156,-0.4162,-0.4154,-0.4163,-0.4164,-0.4163,-0.4111,-0.4107,-0.417,-0.417,-0.417,-0.417,-0.417,-0.417,-0.4229,-0.4242,-0.4231,-0.4241,-0.4233,-0.4238,-0.4236,-0.4233,-0.4228,-0.4234,-0.4235,-0.4225,-0.4216,-0.4216,-0.4217,-0.4213,-0.4215,-0.4228,-0.4221,-0.4174,-0.4166,-0.4159,-0.4156,-0.4228,-0.4228,-0.4273,-0.4274,-0.4274]},{"header":{"parameterUnit":"m.s-1","parameterCategory":1,"la1":30.2991,"la2":30.254,"lo1":-89.0895,"lo2":-89.0444,"dy":0.0017,"dx":0.0017,"nx":28,"ny":28,"refTime":"2026-02-17T09:00:00:Z","depth":0,"parameterNumber":3,"parameterNumberName":"V-component_of_WINDS"},"data":[0,0,0,0,0,0,0,0,0,0,0,0,0,0,0,0,0,0,0,0,0,0,0,0,0,0,0,0,0,0,0,0,0,0,0,0,0,0,0,0,0,0,0,0,0,0,0,0,0,0,0,0,0,0,0,0,0,0,-1.5304,-1.5304,0,-1.5298,-1.5298,-1.5298,-1.5287,-1.5287,-1.5286,-1.5286,-1.5281,-1.5281,-1.5281,0,0,0,0,0,0,0,0,0,0,0,0,0,-1.5305,-1.5305,-1.5304,-1.5304,-1.5303,-1.5298,-1.5298,-1.5298,-1.5287,-1.5287,-1.5286,-1.5286,-1.5281,-1.5281,-1.5281,0,0,0,0,0,0,0,0,0,0,0,0,0,-1.5302,-1.5305,-1.5304,-1.5297,-1.5297,-1.5298,-1.5298,-1.5298,-1.5287,-1.5287,-1.5286,-1.5286,-1.528,-1.5281,-1.5281,-1.5288,0,0,-1.5281,-1.5281,0,0,0,0,0,0,0,0,-1.5302,-1.5302,-1.5298,-1.5298,-1.5297,-1.5293,-1.5296,-1.5294,-1.5287,-1.5291,-1.5286,-1.5286,-1.5285,-1.5285,-1.5284,-1.5287,-1.5287,-1.5281,-1.5281,-1.5281,-1.5281,0,0,0,0,0,0,0,-1.5303,-1.5302,-1.5301,-1.5298,-1.5298,-1.5295,-1.5294,-1.5296,-1.529,-1.529,-1.529,-1.5289,-1.5284,-1.5284,-1.5284,-1.5287,-1.5281,-1.5281,-1.5281,-1.5281,-1.5296,-1.5296,0,0,0,0,0,0,-1.5304,-1.5303,-1.5302,-1.5301,-1.5299,-1.5295,-1.5294,-1.5295,-1.529,-1.5289,-1.5289,-1.5289,-1.5284,-1.5284,-1.5284,-1.5291,-1.5281,-1.5281,-1.5281,-1.5295,-1.5296,-1.5296,0,0,0,0,0,0,-1.5304,-1.5304,-1.5302,-1.5302,-1.5301,-1.5295,-1.5296,-1.5295,-1.5294,-1.5289,-1.5288,-1.529,-1.5284,-1.5284,-1.5287,-1.5291,-1.5281,-1.5281,-1.5295,-1.5296,-1.5296,-1.5307,0,0,0,0,0,0,-1.5304,-1.5304,-1.5306,-1.5302,-1.5301,-1.5305,-1.5296,-1.5295,-1.5294,-1.5293,-1.5289,-1.5288,-1.5284,-1.5287,-1.5287,-1.5291,-1.5281,-1.5295,-1.5295,-1.5296,-1.5306,-1.5308,-1.5309,0,0,0,0,0,-1.5304,-1.531,-1.5306,-1.5306,-1.5304,-1.5305,-1.5305,-1.5299,-1.5295,-1.5297,-1.5294,-1.5288,-1.5291,-1.5287,-1.5287,-1.5291,-1.5294,-1.5295,-1.5296,-1.5305,-1.5307,-1.5309,0,0,0,0,0,0,-1.5314,-1.5309,-1.5305,-1.531,-1.5308,-1.5303,-1.5306,-1.5302,-1.5301,-1.53,-1.5293,-1.5293,-1.5296,-1.5294,-1.529,-1.5298,-1.5292,-1.5293,-1.5299,-1.5301,-1.5302,-1.5302,-1.5281,0,0,0,0,0,-1.5317,-1.5318,-1.5313,-1.5318,-1.5317,-1.5312,-1.5312,-1.5308,-1.5306,-1.5305,-1.5302,-1.53,-1.53,-1.5301,-1.5301,-1.5306,-1.5305,-1.5309,-1.5311,-1.5312,-1.5313,-1.5315,-1.5317,-1.5299,-1.5299,-1.5299,0,0,-1.5323,-1.532,-1.5321,-1.532,-1.5318,-1.5319,-1.5311,-1.5313,-1.5314,-1.5305,-1.5308,-1.5306,-1.5303,-1.5308,-1.5309,-1.5306,-1.5318,-1.5313,-1.5314,-1.5314,-1.5316,-1.5318,-1.5319,-1.5299,-1.5299,-1.5299,0,0,-1.5334,-1.5332,-1.5335,-1.5334,-1.5331,-1.5328,-1.5329,-1.5325,-1.5323,-1.5326,-1.5319,-1.5321,-1.5321,-1.532,-1.5319,-1.5331,-1.5325,-1.5331,-1.5338,-1.5341,-1.5342,-1.5344,-1.5347,-1.5349,-1.5332,-1.5332,-1.5332,0,-1.5341,-1.5343,-1.5337,-1.5339,-1.5339,-1.5332,-1.5335,-1.5334,-1.5332,-1.5332,-1.5328,-1.5329,-1.5327,-1.5331,-1.5334,-1.5334,-1.5334,-1.5331,-1.5343,-1.5344,-1.5345,-1.5348,-1.535,-1.5332,-1.5332,-1.5332,-1.5332,0,-1.5352,-1.5353,-1.5356,-1.5354,-1.5354,-1.5357,-1.5352,-1.5353,-1.5349,-1.5346,-1.5349,-1.5347,-1.5346,-1.5347,-1.5343,-1.535,-1.5348,-1.5344,-1.5337,-1.5347,-1.535,-1.5352,-1.5333,-1.5333,-1.5333,-1.5333,0,0,-1.5368,-1.5363,-1.5365,-1.5364,-1.5361,-1.5362,-1.5364,-1.5364,-1.5365,-1.5364,-1.5365,-1.5367,-1.5363,-1.5362,-1.5358,-1.5361,-1.537,-1.5356,-1.5356,-1.5358,-1.5377,-1.538,-1.5381,-1.5367,-1.5367,-1.5367,-1.5377,0,-1.5377,-1.5381,-1.5377,-1.5382,-1.5383,-1.5377,-1.5379,-1.5378,-1.5375,-1.5376,-1.5373,-1.5374,-1.5369,-1.5369,-1.5371,-1.5368,-1.5373,-1.5367,-1.5368,-1.5368,-1.5368,-1.5383,-1.5386,-1.5395,-1.5378,-1.5378,-1.5379,0,-1.5389,-1.5388,-1.5393,-1.5391,-1.5391,-1.5393,-1.5392,-1.5393,-1.5392,-1.539,-1.5389,-1.5385,-1.5388,-1.5382,-1.5385,-1.5382,-1.5382,-1.5381,-1.5381,-1.538,-1.5373,-1.5382,-1.5398,-1.5399,-1.5381,-1.538,-1.538,0,-1.5399,-1.54,-1.5403,-1.5403,-1.54,-1.5401,-1.54,-1.5398,-1.5398,-1.5398,-1.5398,-1.5398,-1.5398,-1.5398,-1.5394,-1.5391,-1.5398,-1.5392,-1.5396,-1.5396,-1.5397,-1.5397,-1.5413,-1.5399,-1.5399,-1.5399,-1.5399,0,-1.541,-1.5413,-1.5408,-1.541,-1.5413,-1.5409,-1.5412,-1.5411,-1.5409,-1.5411,-1.5406,-1.5407,-1.5402,-1.5403,-1.54,-1.5403,-1.5403,-1.5402,-1.5401,-1.5402,-1.5402,-1.5401,-1.54,-1.5399,-1.5399,-1.5399,-1.5399,0,-1.5422,-1.5419,-1.5421,-1.5419,-1.5418,-1.5421,-1.5418,-1.542,-1.5418,-1.5419,-1.542,-1.5416,-1.5417,-1.5413,-1.5414,-1.5412,-1.5416,-1.5414,-1.5416,-1.5416,-1.542,-1.5419,-1.5435,-1.5437,-1.5422,-1.5422,-1.5423,0,-1.5428,-1.5431,-1.5428,-1.5429,-1.5428,-1.5429,-1.5429,-1.5425,-1.5426,-1.5425,-1.5426,-1.5427,-1.5427,-1.5429,-1.5427,-1.5427,-1.5425,-1.543,-1.5425,-1.5426,-1.5424,-1.5424,-1.5424,-1.5431,-1.5431,-1.5431,-1.5432,0,-1.544,-1.5439,-1.5439,-1.5439,-1.544,-1.544,-1.5439,-1.544,-1.5436,-1.5437,-1.5438,-1.5438,-1.5439,-1.5439,-1.5439,-1.5438,-1.5434,-1.5434,-1.5434,-1.5435,-1.5436,-1.5435,-1.5419,-1.5433,-1.5433,-1.5433,-1.5433,-1.5433,-1.5449,-1.5451,-1.545,-1.545,-1.545,-1.545,-1.5451,-1.5449,-1.545,-1.545,-1.5448,-1.5449,-1.5448,-1.5448,-1.5447,-1.5448,-1.5446,-1.5447,-1.5447,-1.5448,-1.5448,-1.5437,-1.5449,-1.5448,-1.5448,-1.5448,-1.5448,0,-1.546,-1.5459,-1.546,-1.546,-1.5461,-1.5458,-1.5457,-1.5458,-1.5459,-1.5459,-1.5459,-1.546,-1.5461,-1.5459,-1.546,-1.5461,-1.5459,-1.5461,-1.5461,-1.546,-1.5451,-1.545,-1.5463,-1.5463,-1.5463,-1.5463,-1.5463,-1.5463,-1.5466,-1.5469,-1.5467,-1.547,-1.5469,-1.547,-1.547,-1.547,-1.547,-1.5472,-1.5472,-1.5471,-1.547,-1.547,-1.5471,-1.547,-1.547,-1.5473,-1.5472,-1.5462,-1.5461,-1.546,-1.5459,-1.5473,-1.5473,-1.5481,-1.5481,-1.5481]}]]